Погода в Пяндже

Таджикистан     37°14′08″N   69°05′58″E
темп.,
°C
ветер,
м/с
пор.,
м/с
влажн.,
%
обл.,
%
осадки,
мм/ч
давл.,
гПа
погр.,
м
12 августа, пт
пт1223:00+26вюв11205 0.0 100511
02:00+25юв222281 0.0 100512
05:00+24в11240 0.0 100611
08:00+29ю11180 0.0 1007298
11:00+34з32130 0.0 10051445
14:00+38з43120 0.0 10022378
17:00+38зюз53120 0.0 10012291
20:00+30зюз33180 0.0 100218
13 августа, сб
сб1323:00+27юв11210 0.0 100311
02:00+26вюв22220 0.0 100312
05:00+25в11240 0.0 100411
08:00+31юв11170 0.0 1005257
11:00+36з43120 0.0 10041580
14:00+39зсз54100 0.0 10012577
17:00+39зюз54100 0.0 9992270
20:00+31зюз22160 0.0 100012
14 августа, вс
вс1423:00+27ююв11190 0.0 100111
02:00+26юв22200 0.0 100111
05:00+25вюв11210 0.0 100211
08:00+31юв11151 0.0 1003257
11:00+36з321169 0.0 10021328
14:00+40з431096 0.0 10002253
17:00+40зюз331043 0.0 9992270
20:00+32зюз221577 0.0 100014
15 августа, пн
пн1523:00+29юв11175 0.0 100111
02:00+28юв22189 0.0 100111
05:00+26вюв111997 0.0 100111
08:00+32ююв121423 0.0 1003259
11:00+38зюз331011 0.0 10021325
14:00+41з4395 0.0 10002378
17:00+40з5495 0.0 9992429
20:00+32зюз23145 0.0 100014
16 августа, вт
вт1623:00+29ю12175 0.0 100111
02:00+28юв33182 0.0 100316
05:00+27юв22195 0.0 100311
08:00+32зюз12144 0.0 1005246
11:00+38з45102 0.0 10041429
14:00+40з5490 0.0 10012526
17:00+40з5594 0.0 10002554
20:00+32юз221467 0.0 100112